[[{"header":{"parameterUnit":"m.s-1","parameterCategory":1,"la1":30.2992,"la2":30.254,"lo1":-89.0895,"lo2":-89.0443,"dy":0.0025,"dx":0.0025,"nx":19,"ny":19,"refTime":"2026-05-01T09:00:00:Z","depth":0,"parameterNumber":2,"parameterNumberName":"U-component_of_WINDS"},"data":[0,0,0,-1.698,-1.6982,-1.7072,-1.7072,-1.7202,-1.7203,0,0,0,0,0,0,0,0,0,0,0,-1.6963,-1.6964,-1.698,-1.6982,-1.7071,-1.7072,-1.7201,-1.7203,0,0,0,0,0,0,0,0,0,0,0,-1.6962,-1.6964,-1.6965,-1.6983,-1.7071,-1.7072,-1.7201,-1.7128,0,0,0,0,0,0,0,0,0,0,-1.7039,-1.7032,-1.6963,-1.6965,-1.6983,-1.7071,-1.7072,-1.7124,-1.7133,-1.7168,0,-1.7201,0,-1.7204,-1.7213,-1.7213,0,0,0,-1.6975,-1.7026,-1.7041,-1.6966,-1.6984,-1.7071,-1.7029,-1.7129,-1.7138,-1.7179,-1.7203,-1.7208,-1.7207,-1.7214,-1.7214,-1.7439,-1.7441,0,0,-1.697,-1.6984,-1.7034,-1.7047,-1.7035,-1.7026,-1.7032,-1.7134,-1.7162,-1.7204,-1.721,-1.7209,-1.7215,-1.7216,-1.7438,-1.744,0,0,0,-1.6961,-1.6981,-1.6994,-1.7043,-1.7057,-1.7029,-1.7036,-1.7157,-1.716,-1.7212,-1.721,-1.7215,-1.7217,-1.7437,-1.7439,-1.7521,0,0,0,-1.6958,-1.6976,-1.6992,-1.7001,-1.7056,-1.7109,-1.7057,-1.7153,-1.7164,-1.721,-1.7215,-1.7219,-1.7435,-1.7438,-1.7516,-1.7559,0,0,0,-1.6954,-1.6975,-1.6991,-1.7002,-1.7041,-1.7107,-1.7115,-1.7155,-1.7164,-1.7213,-1.7219,-1.7434,-1.7437,-1.7511,-1.7551,-1.7623,0,0,0,-1.6954,-1.7063,-1.6993,-1.7114,-1.704,-1.7156,-1.7114,-1.72,-1.7252,-1.7216,-1.7435,-1.7439,-1.7509,-1.7545,-1.7618,-1.7688,-1.7717,0,0,-1.71,-1.7081,-1.7151,-1.7091,-1.7223,-1.7142,-1.7286,-1.7321,-1.7312,-1.7398,-1.7403,-1.7518,-1.755,-1.7622,-1.7877,-1.7901,0,0,0,-1.7202,-1.7253,-1.7285,-1.7335,-1.7364,-1.7392,-1.7403,-1.7415,-1.7487,-1.7359,-1.7562,-1.7581,-1.7622,-1.7655,-1.7676,-1.7711,-1.7454,-1.7453,-1.7453,-1.743,-1.7413,-1.7528,-1.7522,-1.7571,-1.758,-1.7618,-1.7637,-1.7606,-1.7654,-1.768,-1.7837,-1.7876,-1.7891,-1.7928,-1.7714,-1.7714,-1.7714,-1.7714,-1.7643,-1.7713,-1.7668,-1.7763,-1.7744,-1.7824,-1.7837,-1.7812,-1.7884,-1.7816,-1.7852,-1.7782,-1.7918,-1.7949,-1.7721,-1.7719,-1.7719,-1.7718,-1.7718,-1.7793,-1.7823,-1.7836,-1.7906,-1.7962,-1.7951,-1.8022,-1.8001,-1.7983,-1.8018,-1.8044,-1.8042,-1.804,-1.8031,-1.8032,-1.8032,-1.8033,-1.8033,-1.8033,-1.7943,-1.7955,-1.8017,-1.8056,-1.8085,-1.812,-1.8129,-1.8157,-1.8183,-1.8163,-1.8163,-1.8128,-1.7934,-1.7886,-1.8042,-1.804,-1.8039,-1.8038,-1.8038,-1.817,-1.8115,-1.8212,-1.8241,-1.8284,-1.8341,-1.8312,-1.8371,-1.8391,-1.8427,-1.8383,-1.8242,-1.8222,-1.8206,-1.8167,-1.8385,-1.8385,-1.8385,-1.8385,-1.8297,-1.8284,-1.8378,-1.8426,-1.847,-1.8454,-1.8564,-1.8571,-1.857,-1.8582,-1.8546,-1.8492,-1.8476,-1.8465,-1.8443,-1.8407,-1.8682,-1.8682,-1.8682,-1.8436,-1.8426,-1.8524,-1.8522,-1.8553,-1.8581,-1.8683,-1.874,-1.8727,-1.8694,-1.859,-1.8578,-1.8489,-1.8461,-1.8429,-1.8395,-1.8327,0,0]},{"header":{"parameterUnit":"m.s-1","parameterCategory":1,"la1":30.2992,"la2":30.254,"lo1":-89.0895,"lo2":-89.0443,"dy":0.0025,"dx":0.0025,"nx":19,"ny":19,"refTime":"2026-05-01T09:00:00:Z","depth":0,"parameterNumber":3,"parameterNumberName":"V-component_of_WINDS"},"data":[0,0,0,-4.4693,-4.4692,-4.4635,-4.4635,-4.4578,-4.4577,0,0,0,0,0,0,0,0,0,0,0,-4.4723,-4.4723,-4.4693,-4.4692,-4.4635,-4.4635,-4.4578,-4.4577,0,0,0,0,0,0,0,0,0,0,0,-4.4723,-4.4723,-4.4723,-4.4692,-4.4635,-4.4635,-4.4578,-4.4615,0,0,0,0,0,0,0,0,0,0,-4.4667,-4.4708,-4.4723,-4.4723,-4.4692,-4.4635,-4.4635,-4.4616,-4.4612,-4.4611,0,-4.4617,0,-4.4596,-4.4575,-4.4575,0,0,0,-4.4682,-4.4711,-4.4684,-4.4723,-4.4691,-4.4635,-4.4658,-4.4614,-4.4609,-4.4607,-4.4616,-4.4613,-4.4595,-4.4575,-4.4574,-4.4607,-4.4608,0,0,-4.4685,-4.4719,-4.4687,-4.4682,-4.4695,-4.466,-4.4656,-4.4611,-4.4622,-4.4615,-4.4611,-4.4594,-4.4574,-4.4574,-4.4606,-4.4607,0,0,0,-4.4701,-4.4722,-4.4695,-4.4685,-4.4674,-4.4658,-4.4654,-4.4624,-4.4613,-4.4611,-4.4594,-4.4574,-4.4574,-4.4606,-4.4607,-4.467,0,0,0,-4.4702,-4.4731,-4.4697,-4.4718,-4.4675,-4.4649,-4.4669,-4.4616,-4.461,-4.4594,-4.4574,-4.4573,-4.4605,-4.4606,-4.4667,-4.4694,0,0,0,-4.4722,-4.4733,-4.4729,-4.472,-4.4696,-4.4649,-4.4635,-4.4614,-4.46,-4.4575,-4.4573,-4.4605,-4.4606,-4.4664,-4.4689,-4.4711,0,0,0,-4.4752,-4.4788,-4.4731,-4.4763,-4.4697,-4.469,-4.4635,-4.4627,-4.4613,-4.4574,-4.4605,-4.4607,-4.4663,-4.4686,-4.4708,-4.4734,-4.4749,0,0,-4.4816,-4.4797,-4.4813,-4.476,-4.4772,-4.4696,-4.4715,-4.4669,-4.4635,-4.4617,-4.4618,-4.4668,-4.4689,-4.471,-4.4822,-4.4834,0,0,0,-4.4844,-4.4856,-4.4851,-4.484,-4.4807,-4.4779,-4.4727,-4.4709,-4.4692,-4.4634,-4.4681,-4.4693,-4.4704,-4.4714,-4.4724,-4.473,-4.4614,-4.4613,-4.4613,-4.4982,-4.4936,-4.4958,-4.4905,-4.4895,-4.4839,-4.4825,-4.4791,-4.4749,-4.476,-4.4754,-4.4828,-4.4842,-4.4849,-4.4856,-4.4766,-4.4766,-4.4766,-4.4766,-4.5068,-4.5077,-4.5018,-4.5018,-4.4968,-4.4967,-4.4913,-4.4882,-4.4871,-4.4829,-4.4837,-4.4794,-4.4864,-4.4867,-4.4771,-4.477,-4.4769,-4.4769,-4.4769,-4.5152,-4.5148,-4.5126,-4.5103,-4.5089,-4.5033,-4.5024,-4.4979,-4.4936,-4.4944,-4.493,-4.4929,-4.492,-4.4941,-4.4941,-4.4941,-4.4941,-4.4942,-4.4942,-4.5247,-4.5221,-4.5221,-4.5186,-4.5171,-4.5145,-4.5087,-4.507,-4.5038,-4.5005,-4.5005,-4.4959,-4.4881,-4.4861,-4.4945,-4.4945,-4.4944,-4.4944,-4.4944,-4.5349,-4.5318,-4.5319,-4.5304,-4.5257,-4.5244,-4.5186,-4.5154,-4.5132,-4.5128,-4.508,-4.503,-4.5007,-4.4998,-4.4981,-4.5092,-4.5092,-4.5092,-4.5092,-4.5418,-4.5402,-4.5391,-4.5369,-4.5342,-4.5289,-4.5285,-4.5238,-4.5185,-4.5168,-4.5145,-4.5119,-4.5112,-4.5092,-4.5082,-4.5065,-4.5195,-4.5195,-4.5195,-4.5477,-4.5456,-4.5464,-4.5414,-4.5373,-4.5337,-4.5331,-4.5305,-4.5237,-4.5198,-4.5152,-4.5148,-4.5105,-4.5094,-4.5055,-4.504,-4.5008,0,0]}]]